Tracking 33744 objects as of 13-Apr-2026
HD Live streaming from Space Station
objects crossing your sky now

OBJECT E

Track OBJECT E now!
10-day predictions


NORAD ID: 67750
Int'l Code: 2026-027E
Perigee: 509.1 km
Apogee: 524.3 km
Inclination: 97.5 °
Period: 94.8 minutes
Semi major axis: 6887 km
RCS: Unknown
Launch date: February 12, 2026
Source: People's Republic of China (PRC)
Launch site: ()
Your satellite tracking list
Your tracking list is empty




NASA's NSSDC Master Catalog

Two Line Element Set (TLE):
1 67750U 26027E   26102.83227035  .00005209  00000-0  25357-3 0  9994
2 67750  97.4967 231.5606 0011059  95.0892 265.1605 15.18761979  9043
Source of the keplerian elements: AFSPC